Regional Weather Roundup
Issued by NWS

Home | Current Version | Previous Version | Text Only | Print | Product List | Glossary On
Versions: 1 2 3 4 5 6 7 8 9 10 11 12 13 14 15 16 17 18 19 20 21 22 23 24 25 26 27 28 29 30 31 32 33 34 35 36 37 38 39 40 41 42 43 44 45 46 47 48 49 50
000
ASUS45 KCYS 270910
RWRWY

WYOMING REGIONAL WEATHER ROUNDUP
NATIONAL WEATHER SERVICE CHEYENNE WY
300 AM MDT WED AUG 27 2014

NOTE:  "FAIR" INDICATES FEW OR NO CLOUDS BELOW 12,000 FEET
WITH NO SIGNIFICANT WEATHER AND/OR OBSTRUCTIONS TO VISIBILITY.

WYZ001-271000-
YELLOWSTONE NATIONAL PARK

CITY           SKY/WX    TMP DP  RH WIND       PRES   REMARKS
LK YELLOWSTONE   N/A     34  33  96 CALM      30.38S
W YELLOWSTONE  NOT AVBL

$$
WYZ002>013-054>058-071-098>099-271000-
NORTHERN WYOMING

CITY           SKY/WX    TMP DP  RH WIND       PRES   REMARKS
JACKSON        MOCLDY    45  43  93 N3        30.28F
CODY           PTCLDY    55  48  76 CALM      30.19S
GREYBULL       CLEAR     59  48  67 CALM      30.14R
WORLAND        NOT AVBL
SHERIDAN       CLEAR     50  46  86 CALM      30.15F
BUFFALO        CLEAR     56  46  69 SW5       30.21F
GILLETTE       CLEAR     53  51  93 CALM      30.18S
HULETT         FAIR      54  50  87 MISG      30.19
NEWCASTLE      FAIR      63  54  72 N8        30.16

$$
WYZ014>020-022>026-101>103-271000-
CENTRAL WYOMING

CITY           SKY/WX    TMP DP  RH WIND       PRES   REMARKS
BIG PINEY      CLOUDY    49  44  83 NE3       30.30S
PINEDALE       CLOUDY    46  45  93 CALM      30.31S
DUBOIS         FAIR      46  37  71 NW9       30.31F
LANDER         MOCLDY    59  46  62 NW9       30.21R
RIVERTON       PTCLDY    57  47  69 E8        30.21R
CASPER         CLOUDY    57  51  80 N7        30.21S
DOUGLAS        MOCLDY    57  56  96 NE6       30.20F

$$
WYZ021-027>030-104>119-271000-
SOUTHERN WYOMING

CITY           SKY/WX    TMP DP  RH WIND       PRES   REMARKS
EVANSTON       CLOUDY    51  45  79 E5        30.28F
KEMMERER       CLOUDY    50  45  81 N12       30.29F
FORT BRIDGER   CLOUDY    53  46  78 CALM      30.30S
ROCK SPRINGS   CLOUDY    53  43  68 SE6       30.27S
DIXON          CLOUDY    53  48  85 CALM      30.29S
RAWLINS        CLOUDY    54  46  74 CALM      30.26S
SARATOGA       PTSUNNY   48  45  87 MISG      30.28F
LARAMIE        CLOUDY    53  45  74 S3        30.27F
CHEYENNE       CLOUDY    54  50  86 W7        30.22F
TORRINGTON     MOCLDY    60  57  89 E6        30.14S
PINE BLUFFS    FAIR      55  54  94 CALM      30.18F

$$


USA.gov is the U.S. government's official web portal to all federal, state and local government web resources and services.